Location: Cabeza de los Veneras
(40.2000°N, 5.2000°W)
Time: 10:52:12
(UTC+00:00)

USA 229 DEB - Pass Details

Date: 18 April 2024
Orbit: 892 x 1319 km, 63.4° (Epoch: 18 May)

Event Time Altitude Azimuth Distance (km) Brightness Sun altitude
Rises 21:39:23 0° 228° (SW) 3,526 6.5 -26.5°
Reaches altitude 10° 21:41:53 10° 233° (SW) 2,616 5.8 -26.9°
Maximum altitude 21:47:49 54° 310° (NW) 1,169 4.1 -27.7°
Drops below altitude 10° 21:54:21 10° 27° (NNE) 2,865 6.2 -28.5°
Sets 21:57:12 0° 32° (NNE) 3,889 6.8 -28.9°
